GW0007 Weather Reports


time (UTC)temp
C
wind
direction
speed
KPH
gust
KPH
rain 1hr
cm
rain 24hr
cm
rain mn
cm
humidity
%
barometer
mb
20260906230057 26 123 6.4 17.7 0.00 0.00 0.00 46 1012.2
20260906224548 26 146 11.3 22.5 0.00 0.00 0.00 48 1012.1
20260906223046 26 126 8.0 22.5 0.00 0.00 0.00 48 1012.2
20260906221552 26 105 6.4 14.5 0.00 0.00 0.00 48 1012.6
20260906220042 26 120 3.2 19.3 0.00 0.00 0.00 47 1012.8
20260906214543 26 79 6.4 14.5 0.00 0.00 0.00 48 1012.7
20260906213049 25 61 8.0 17.7 0.00 0.00 0.00 49 1012.8
20260906211543 25 143 6.4 11.3 0.00 0.00 0.00 49 1013.0
20260906210055 25 120 3.2 14.5 0.00 0.00 0.00 50 1013.2
20260906204601 25 130 8.0 20.9 0.00 0.00 0.00 53 1013.4
20260906203043 24 70 8.0 16.1 0.00 0.00 0.00 54 1013.6
20260906201601 23 121 11.3 19.3 0.00 0.00 0.00 55 1013.7
20260906200049 23 98 9.7 25.7 0.00 0.00 0.00 56 1013.9
20260906194546 24 124 8.0 12.9 0.00 0.00 0.00 55 1014.2
20260906193051 23 79 6.4 16.1 0.00 0.00 0.00 56 1014.6
20260906191551 23 69 4.8 14.5 0.00 0.00 0.00 57 1014.9
20260906190049 23 106 3.2 16.1 0.00 0.00 0.00 57 1015.0
20260906184553 22 59 4.8 12.9 0.00 0.00 0.00 59 1015.2
20260906183042 22 89 3.2 9.7 0.00 0.00 0.00 59 1015.7
20260906181554 21 67 1.6 9.7 0.00 0.00 0.00 63 1015.9
20260906180105 21 320 1.6 4.8 0.00 0.00 0.00 61 1016.1
20260906174551 21 290 1.6 8.0 0.00 0.00 0.00 61 1016.4
20260906173056 20 225 3.2 8.0 0.00 0.00 0.00 64 1016.8
20260906171600 19 191 1.6 9.7 0.00 0.00 0.00 66 1017.1
20260906164550 17 295 4.8 12.9 0.00 0.00 0.00 68 1017.4
20260906163046 17 251 6.4 14.5 0.00 0.00 0.00 68 1017.6
20260906161542 17 228 3.2 14.5 0.00 0.00 0.00 69 1017.7
20260906160049 16 258 6.4 17.7 0.00 0.00 0.00 71 1017.8
20260906154543 16 272 9.7 17.7 0.00 0.00 0.00 73 1017.9
20260906153043 16 305 4.8 16.1 0.00 0.00 0.00 75 1017.9
20260906151551 15 284 4.8 9.7 0.00 0.00 0.00 76 1017.9
20260906150047 15 330 1.6 6.4 0.00 0.00 0.00 78 1017.9
20260906144545 15 274 1.6 8.0 0.00 0.00 0.00 75 1017.9
20260906143043 14 167 6.4 11.3 0.00 0.00 0.00 74 1017.9
20260906141542 15 136 3.2 4.8 0.00 0.00 0.00 74 1017.8
20260906140049 14 0 0.0 3.2 0.00 0.00 0.00 76 1017.6
20260906134544 13 139 1.6 6.4 0.00 0.00 0.00 76 1017.5
20260906133055 13 116 3.2 6.4 0.00 0.00 0.00 78 1017.4
20260906131551 13 90 3.2 6.4 0.00 0.00 0.00 78 1017.4
20260906130053 13 75 3.2 4.8 0.00 0.00 0.00 78 1017.4
20260906124547 14 79 1.6 6.4 0.00 0.00 0.00 78 1017.4
20260906123045 15 92 3.2 6.4 0.00 0.00 0.00 76 1017.5
20260906121556 14 70 3.2 8.0 0.00 0.00 0.00 76 1017.4
20260906114551 14 81 4.8 12.9 0.00 0.00 0.00 75 1017.3
20260906113047 14 87 3.2 11.3 0.00 0.00 0.00 75 1017.4
20260906111542 13 84 4.8 9.7 0.00 0.00 0.00 75 1017.3
20260906110045 13 96 6.4 14.5 0.00 0.00 0.00 75 1017.4
20260906104545 13 105 6.4 16.1 0.00 0.00 0.00 75 1017.4
20260906103045 12 91 8.0 14.5 0.00 0.00 0.00 74 1017.5
20260906101554 12 68 8.0 14.5 0.00 0.00 0.00 73 1017.6
20260906100047 12 83 9.7 16.1 0.00 0.00 0.00 71 1017.6
20260906094544 12 94 3.2 4.8 0.00 0.00 0.00 69 1017.5
20260906093050 13 89 0.0 3.2 0.00 0.00 0.00 67 1017.7
20260906091546 13 84 0.0 3.2 0.00 0.00 0.00 66 1017.6
20260906090059 13 98 4.8 9.7 0.00 0.00 0.00 65 1017.7
20260906084553 13 84 6.4 16.1 0.00 0.00 0.00 63 1017.6
20260906083052 13 78 8.0 19.3 0.00 0.00 0.00 62 1017.8
20260906081546 14 68 9.7 14.5 0.00 0.00 0.00 61 1017.9
20260906080107 13 78 8.0 14.5 0.00 0.00 0.00 62 1017.8
20260906074558 14 79 8.0 16.1 0.00 0.00 0.00 61 1018.1
20260906073048 13 82 1.6 3.2 0.00 0.00 0.00 62 1018.3
20260906071557 13 121 3.2 3.2 0.00 0.00 0.00 63 1018.2
20260906070051 14 122 3.2 6.4 0.00 0.00 0.00 62 1018.3
20260906064545 14 119 4.8 6.4 0.00 0.00 0.00 61 1018.3
20260906063053 15 114 1.6 3.2 0.00 0.00 0.00 58 1018.2
20260906061544 16 0 0.0 3.2 0.00 0.00 0.00 54 1018.2
20260906060052 16 105 0.0 8.0 0.00 0.00 0.00 53 1018.2
20260906054546 16 50 0.0 6.4 0.00 0.00 0.00 53 1018.0
20260906053050 16 18 3.2 8.0 0.00 0.00 0.00 53 1018.1
20260906051543 17 0 0.0 3.2 0.00 0.00 0.00 53 1018.2
20260906050051 17 0 0.0 3.2 0.00 0.00 0.00 50 1018.2
20260906044546 17 56 0.0 4.8 0.00 0.00 0.00 48 1018.1
20260906043043 18 0 1.6 9.7 0.00 0.00 0.00 46 1018.2
20260906041554 18 91 3.2 9.7 0.00 0.00 0.00 45 1018.1
20260906040047 18 85 1.6 8.0 0.00 0.00 0.00 45 1017.9
20260906034547 18 51 6.4 11.3 0.00 0.00 0.00 44 1017.8
20260906033041 18 82 4.8 9.7 0.00 0.00 0.00 44 1017.7
20260906031550 19 53 3.2 8.0 0.00 0.00 0.00 42 1017.8
20260906030046 20 53 3.2 6.4 0.00 0.00 0.00 42 1017.6
20260906024558 20 66 4.8 6.4 0.00 0.00 0.00 43 1017.4
20260906023053 21 70 3.2 8.0 0.00 0.00 0.00 38 1017.2
20260906021552 22 104 6.4 11.3 0.00 0.00 0.00 37 1017.1
20260906020050 22 96 3.2 8.0 0.00 0.00 0.00 38 1016.8
20260906014602 23 83 4.8 9.7 0.00 0.00 0.00 37 1016.6
20260906013045 24 85 3.2 9.7 0.00 0.00 0.00 33 1016.5
20260906011545 25 87 4.8 12.9 0.00 0.00 0.00 31 1016.4
20260906010043 25 72 9.7 14.5 0.00 0.00 0.00 30 1016.2
20260906004549 26 100 4.8 12.9 0.00 0.00 0.00 33 1016.2
20260906003102 26 87 6.4 12.9 0.00 0.00 0.00 28 1016.1
20260906001554 26 91 6.4 14.5 0.00 0.00 0.00 28 1016.1
20260905234548 26 75 8.0 16.1 0.00 0.00 0.00 28 1016.2
20260905233048 26 101 8.0 12.9 0.00 0.00 0.00 27 1016.2
20260905231544 26 80 8.0 16.1 0.00 0.00 0.00 29 1016.2